Starlink 5158

operational
NORAD ID: 54055 Int'l Des: 2022-136 Owner: SPXS Country: US Constellation: starlink
LEOCIRCULAR

关于 Starlink 5158

正在加载描述...

实时位置

正在加载3D地球...

即将过境

高度历史

Altitude vs Time

uPlot chart will show altitude changes over time

两行轨道根数

1 54055U 22136E 25303.93889563 .00004629 00000-0 30855-3 0 9992
2 54055 53.2167 206.7617 0001564 90.5914 269.5258 15.08859789167256
Epoch: Oct 30, 2025 • Age: 8 hours

当前状态

高度 543.6 km
速度 7.59 km/s
星下点 -13.28°S, 59.23°E
发射日期 Oct 20, 2022
运行时间 3 years
类型 internet

技术详情

分类 Payload
质量 305.00 kg
干质量 290.00 kg
总质量 305.00 kg
长度 0.20 m
直径 2.80 m
跨度 9.00 m
形状 Box + pan
制造商 SPXS
平台类型 Starlink
阶段状态 In Orbit
所有者/国家 SPXS/US

大型星座

Loading constellations...